This demonstration page uses our WeatherBlox Daily Observations layout. Learn more.

Left ArrowRight Arrow

36.17497, -115.13722

Hourly Observations for September 26, 2017

Temp ( °F °C ) Dew Point ( °F °C ) Humidity (%) Winds ( mph kmh ) Pressure ( in mb ) Visibility ( mi km ) Precip ( " mm )
12:53 am 00:53 Clear 65 18.3 26 -3.3 23 23 Calm 29.91 1013 10 16 0.00 0.00
1:53 am 01:53 Clear 64 17.8 26 -3.3 24 24 Calm 29.91 1013 10 16 0.00 0.00
2:53 am 02:53 Clear 65 18.3 26 -3.3 23 23 N 5 7 29.90 1013 10 16 0.00 0.00
3:53 am 03:53 Clear 67 19.4 27 -2.8 22 22 N 14 22 29.89 1012 10 16 0.00 0.00
4:53 am 04:53 Clear 66 18.9 27 -2.8 23 23 NNW 14 22 29.89 1012 10 16 0.00 0.00
5:53 am 05:53 Clear 65 18.3 27 -2.8 24 24 NNW 13 20 29.91 1013 10 16 0.00 0.00
6:53 am 06:53 Sunny 64 17.8 27 -2.8 25 25 N 16 26 29.92 1013 10 16 0.00 0.00
7:53 am 07:53 Sunny 63 17.2 28 -2.2 27 27 N 14 22 29.93 1014 10 16 0.00 0.00
8:53 am 08:53 Sunny 66 18.9 29 -1.7 25 25 N 12 19 29.94 1014 10 16 0.00 0.00
9:53 am 09:53 Sunny 71 21.7 28 -2.2 20 20 NNW 16 26 29.93 1014 10 16 0.00 0.00
10:53 am 10:53 Sunny 74 23.3 27 -2.8 17 17 N 15 24 29.93 1014 10 16 0.00 0.00
11:53 am 11:53 Sunny 74 23.3 27 -2.8 17 17 NNW 10 17 29.92 1013 10 16 0.00 0.00
12:53 pm 12:53 Sunny 75 23.9 27 -2.8 17 17 NNE 5 7 29.91 1013 10 16 0.00 0.00
1:53 pm 13:53 Sunny 75 23.9 26 -3.3 16 16 VRB 3 6 29.89 1012 10 16 0.00 0.00
2:53 pm 14:53 Sunny 79 26.1 26 -3.3 14 14 Calm 29.86 1011 10 16 0.00 0.00
3:53 pm 15:53 Sunny 80 26.7 25 -3.9 13 13 VRB 3 6 29.85 1011 10 16 0.00 0.00
4:53 pm 16:53 Sunny 81 27.2 25 -3.9 13 13 NE 3 6 29.84 1011 10 16 0.00 0.00
5:53 pm 17:53 Sunny 79 26.1 24 -4.4 13 13 ESE 3 6 29.84 1011 10 16 0.00 0.00
6:53 pm 18:53 Clear 77 25 24 -4.4 14 14 E 6 9 29.85 1011 10 16 0.00 0.00
7:53 pm 19:53 Clear 75 23.9 27 -2.8 17 17 Calm 29.87 1012 10 16 0.00 0.00
8:53 pm 20:53 Clear 73 22.8 28 -2.2 19 19 WNW 7 11 29.87 1012 10 16 0.00 0.00
9:53 pm 21:53 Clear 72 22.2 26 -3.3 18 18 NNW 6 9 29.88 1012 10 16 0.00 0.00
10:53 pm 22:53 Clear 73 22.8 25 -3.9 17 17 NE 6 9 29.89 1012 10 16 0.00 0.00
11:53 pm 23:53 Clear 71 21.7 25 -3.9 18 18 N 6 9 29.90 1013 10 16 0.00 0.00

Powered by AerisWeather